Lid_Strength_Index
20 19 19 18 16 17 18 18 18 18 17 17 17 16 16 16 16 16 16 15 15 15 14 14 14 14 14 14 13 13 14 14 15 14 13 12 12 12 11 11 10 11 10
20 19 20 19 18 16 16 17 17 17 17 18 17 17 17 17 16 16 16 16 16 16 15 15 15 13 14 14 14 14 14 14 14 15 14 13 13 13 12 12 11 10 10
16 17 17 19 19 19 17 16 16 17 17 17 17 17 17 16 16 17 17 17 17 17 16 16 16 15 16 15 15 15 14 13 14 14 15 13 13 13 13 12 12 12 10
13 15 15 16 17 18 18 17 17 17 17 17 17 17 16 16 16 16 16 16 16 16 15 15 16 16 16 16 15 16 15 16 16 16 16 16 15 13 13 14 14 12 12
14 15 16 17 18 20 20 19 19 17 18 18 17 16 16 16 15 16 15 16 16 15 15 14 14 14 13 13 14 15 15 16 16 16 16 16 16 15 15 14 14 14 13
13 14 14 17 18 19 21 22 21 20 21 20 18 18 17 16 15 15 14 15 14 14 15 14 13 13 13 12 12 12 12 14 14 15 15 15 15 14 14 14 14 14 15
14 14 14 16 17 19 21 21 22 21 22 22 21 19 18 17 15 15 14 15 15 15 15 14 14 13 13 14 13 12 12 12 12 13 14 14 14 14 13 14 14 14 14
12 13 14 15 17 18 21 21 24 23 21 22 21 20 19 17 14 14 14 15 16 16 15 15 15 15 14 14 14 15 15 14 14 14 14 13 13 13 13 13 13 13 13
13 13 13 15 17 18 19 21 22 22 22 21 22 20 20 20 14 14 15 16 16 15 14 14 15 15 14 13 14 15 15 15 13 12 12 12 12 12 12 13 15 15 16
12 12 12 13 16 17 17 18 20 23 21 19 21 21 17 21 15 14 15 18 20 16 15 15 14 14 13 13 14 15 16 16 16 15 15 15 15 15 13 15 15 17 17
11 11 11 12 14 15 16 18 18 18 18 19 19 20 20 20 20 14 14 21 21 21 18 16 16 14 14 14 13 15 16 15 15 16 17 17 16 16 16 15 15 16 17
11 11 11 11 11 13 16 16 17 17 19 19 19 20 20 20 14 14 13 13 14 22 23 21 17 15 15 14 14 15 14 15 16 17 17 17 17 17 17 16 16 16 15
11 13 12 11 10 10 15 16 16 17 17 17 17 18 19 17 17 12 12 13 13 21 23 19 15 16 16 17 16 16 16 18 18 18 18 18 18 17 17 16 16 16 16
13 13 12 11 11 10 11 14 15 16 16 16 16 17 17 17 16 16 17 20 15 20 19 24 19 17 17 18 21 22 23 19 19 19 19 18 18 18 18 17 18 17 18
13 12 12 11 10 10 9 13 14 14 13 15 15 14 15 17 16 14 16 18 22 20 24 27 27 27 27 28 27 27 27 27 26 26 21 20 19 19 19 18 18 18 19
14 13 12 11 11 10 10 10 8 9 9 9 9 11 12 11 11 11 12 14 14 15 22 27 29 30 30 29 29 29 29 24 28 25 22 23 22 21 20 19 19 20 20
14 14 13 12 12 11 10 11 12 10 7 8 8 8 9 10 10 11 13 14 15 16 21 24 27 28 29 29 29 29 28 27 28 25 28 24 23 22 22 22 21 20 20
14 11 12 12 12 11 10 10 11 12 11 11 7 8 8 9 10 12 13 14 17 18 22 23 23 25 26 27 28 29 28 26 24 26 27 26 24 23 23 24 23 23 21
13 13 13 12 11 11 10 10 11 11 11 11 10 7 7 8 10 11 12 17 18 19 21 22 23 22 23 23 24 26 28 25 22 21 26 26 23 23 24 24 23 20 19
13 10 9 10 11 11 10 11 11 12 11 11 11 11 10 9 12 14 15 16 17 18 19 21 22 22 23 23 23 24 22 22 22 21 25 24 23 23 24 24 23 23 22
11 11 9 9 11 10 11 12 11 11 11 12 11 10 9 11 12 14 15 16 16 17 18 19 20 21 22 23 24 25 23 22 21 20 26 23 23 23 22 23 23 22 22
13 11 11 10 11 11 11 11 11 11 12 12 12 10 8 12 13 13 14 14 15 16 16 18 19 20 21 23 25 26 25 21 21 21 24 24 23 22 22 23 23 22 22
12 11 10 9 10 10 10 11 11 12 12 12 12 12 11 13 13 13 13 14 14 15 16 17 18 19 20 21 22 24 26 21 21 20 24 24 23 21 21 22 23 23 23
12 12 11 10 10 11 12 12 12 11 12 13 12 12 13 13 13 14 14 14 15 15 16 17 18 19 20 21 22 22 23 21 19 20 24 27 24 21 21 22 23 23 23
12 12 11 11 11 12 12 13 13 13 13 13 13 13 13 13 14 14 14 15 15 16 16 17 18 18 19 20 22 23 21 15 14 17 23 25 26 24 21 22 23 23 23
13 12 12 11 11 12 13 13 13 14 14 14 13 13 13 14 14 14 15 15 16 16 17 17 17 19 19 20 20 18 13 13 14 13 20 23 26 23 21 23 24 23 24